Location: Prostejov
(49.4670°N, 17.1170°E)
Time: 09:30:46
(UTC+02:00)

ISS - Pass Details

Date: 18 May 2021
Orbit: 417 x 422 km, 51.6° (Epoch: 13 June)

Event Time Altitude Azimuth Distance (km) Brightness Sun altitude
Rises 01:17:56 0° 287° (WNW) 2,371 0.2 -20.7°
Reaches altitude 10° 01:20:02 10° 288° (WNW) 1,506 -0.8 -20.6°
Enters shadow 01:22:48 57° 294° (WNW) 501 -3.4 -20.6°
